Location: *
(46.1333°S, 157.2167°W)
Time: 12:23:23
(UTC+00:00)

Daily predictions for brighter satellites

Satellite Brightness Start Highest point End
(mag) Time Altitude Azimuth Time Altitude Azimuth Time Altitude Azimuth
ATLAS 5 CENTAUR R/B 4.0 14:06:52 33° NE 14:07:39 34° ENE 14:13:45 10° SE
Cosmos 2369 Rocket 4.0 14:30:01 23° SSE 14:31:30 25° SE 14:36:11 10° ENE
Cosmos 2237 Rocket 3.9 14:43:48 24° SSE 14:43:48 24° SSE 14:46:00 10° SSE
SJ 16-02 3.5 14:41:19 24° ESE 14:41:19 24° ESE 14:44:43 10° ENE
Cosmos 1943 Rocket 2.6 14:51:02 58° ESE 14:51:02 58° ESE 14:56:17 10° NE
USA 234 3.1 14:46:36 10° SE 14:53:15 87° NE 14:53:22 86° N
NOSS 3-1 (C) 4.0 14:59:42 65° WSW 14:59:58 65° SW 15:07:32 10° SE
SL-16 R/B 2.2 15:04:29 78° E 15:04:29 78° E 15:10:07 10° SSE
Cosmos 1153 Rocket 4.4 15:03:02 10° S 15:09:34 90° W 15:16:01 10° N
USA 229 DEB 3.8 15:08:33 65° WNW 15:09:48 79° SW 15:17:10 10° SE
USA 229 3.8 15:08:36 64° WNW 15:09:53 80° SW 15:17:15 10° SE
Cosmos 2100 Rocket 4.5 15:04:13 10° S 15:10:36 61° ESE 15:16:56 10° NNE
USA 306 4.4 15:24:50 29° SSE 15:24:50 29° SSE 15:28:12 10° ESE
EXPRESS MD2 4.2 15:26:06 41° ENE 15:26:06 41° ENE 15:29:59 10° ESE
SMAP 3.8 15:22:47 10° NE 15:27:20 51° ESE 15:31:45 11° S
Cosmos 1300 3.5 15:31:55 46° NNE 15:31:55 46° NNE 15:34:47 10° NNE
deb Chang Zheng 4 4.2 15:27:03 10° NNE 15:31:15 55° ESE 15:33:38 24° S
NOSS 3-1 (A) 4.1 15:29:00 42° WNW 15:32:03 66° SW 15:39:38 10° SE
Radarsat Rocket 4.5 15:26:42 10° NNE 15:32:43 65° ESE 15:39:29 10° SSW
ISS -2.5 15:35:04 42° E 15:35:04 42° E 15:37:39 10° ESE
Meteor 2-20 Rocket 4.4 15:32:54 32° NW 15:35:45 61° WSW 15:41:57 10° S
Lacrosse 4 Rocket 1.4 15:36:41 80° SSW 15:36:57 88° ESE 15:41:26 10° NNE
ATLAS 3B R/B 4.4 15:38:42 17° SSW 15:40:38 19° S 15:45:31 10° SE
Cosmos 1943 4.4 15:38:31 10° N 15:43:48 42° ENE 15:49:07 10° SE
MOS 1 Rocket 3.0 15:40:43 10° S 15:45:08 84° WSW 15:49:40 10° NNW
CENTAUR R/B 4.0 15:41:54 14° SSW 15:45:27 23° SSE 15:49:45 10° ESE
Cosmos 1727 Rocket 4.1 15:39:45 10° NNW 15:46:00 56° WSW 15:52:21 10° S
H-2A R/B 3.8 15:45:34 10° NE 15:49:57 30° ESE 15:54:30 10° S
ATLAS 5 CENTAUR R/B 2.7 15:48:28 30° WNW 15:52:15 66° SW 15:58:55 10° SE
Cosmos 1939 Rocket 3.1 15:50:51 10° NNE 15:54:47 68° ESE 15:58:11 14° S
MOS 1-B 4.5 15:51:19 10° NNE 15:57:10 79° ESE 16:03:04 10° SSW
Cosmos 1656 Rocket 4.0 15:53:27 15° SSW 15:58:08 65° ESE 16:03:42 10° NE
CZ-4 R/B 4.2 15:56:03 10° E 15:58:21 15° ESE 16:00:40 10° SSE
BREEZE-M DEB (TANK) 2.2 15:59:57 50° NNW 15:59:59 50° NNW 16:03:31 10° ENE
Cosmos 1777 Rocket 4.4 16:00:31 40° W 16:00:56 40° WNW 16:05:49 10° N
Meteor 2-11 Rocket 4.4 15:56:52 10° SSW 16:03:00 61° W 16:09:04 10° N
Cosmos 1459 Rocket 4.0 16:00:37 10° SSW 16:06:45 59° W 16:12:44 10° N
Genesis I 3.5 16:05:56 31° SSW 16:07:31 60° SE 16:11:12 10° NE
Cosmos 2297 4.4 16:07:27 31° W 16:07:47 32° WNW 16:12:44 10° NNW
CZ-4C R/B 4.5 16:04:27 10° SSE 16:07:53 41° E 16:11:19 10° N
Cosmos 2263 4.3 16:04:16 14° SSW 16:09:24 87° ESE 16:15:14 10° NNE
Cosmos 2173 Rocket 4.1 16:04:18 10° SSW 16:10:26 54° W 16:16:35 10° NNW
Meteor 1-24 Rocket 3.5 16:06:20 10° NNW 16:11:48 80° W 16:17:14 10° S
BREEZE-M TANK 4.3 16:08:48 29° W 16:11:57 76° NNW 16:33:38 10° ENE
CZ-4B R/B 3.4 16:09:05 10° NNE 16:14:35 78° ESE 16:20:17 10° SSW
Cosmos 2369 Rocket 2.2 16:11:51 19° SW 16:15:59 63° WNW 16:21:36 10° N
BREEZE-M DEB (TANK) 2.5 16:16:44 46° SW 16:17:23 66° SSE 16:22:07 10° ENE
Meteor 2-5 Rocket 3.7 16:13:51 10° NNW 16:19:25 58° WSW 16:25:00 10° S
SJ 16-02 1.8 16:18:21 30° WSW 16:19:51 40° WNW 16:24:00 10° N
USA 307 3.8 16:21:52 22° SW 16:24:08 40° SSE 16:28:13 10° E
Cosmos 990 Rocket 4.1 16:18:57 10° SSW 16:24:19 84° ESE 16:29:36 10° NNE
Cosmos 2016 Rocket 3.9 16:18:31 10° SSW 16:24:44 63° W 16:30:46 10° N
Cosmos 2123 Rocket 3.9 16:19:20 10° NNW 16:25:34 73° W 16:31:55 10° S
Cosmos 2237 Rocket 3.9 16:25:39 14° SW 16:25:39 14° SW 16:28:40 10° S
Cosmos 1346 Rocket 3.2 16:22:48 10° NW 16:26:31 38° WSW 16:30:20 10° S
Cosmos 1892 Rocket 4.5 16:24:48 10° N 16:29:03 52° E 16:33:23 10° SSE
Okean O Rocket 1.6 16:24:54 10° NNE 16:29:21 86° ESE 16:33:50 10° SSW
Helios 1B 4.5 16:25:32 10° S 16:29:57 72° WSW 16:34:20 10° NNW
CORIOLIS 4.3 16:25:31 10° N 16:30:50 52° W 16:36:11 10° SSW
Cosmos 1455 2.5 16:27:14 10° S 16:31:12 69° E 16:35:04 10° NNE
Cosmos 1603 3.7 16:25:43 10° NNW 16:31:28 84° WSW 16:37:20 10° SSE
Cosmos 1184 Rocket 2.8 16:30:43 10° NNW 16:33:56 54° WSW 16:37:13 10° S
Cosmos 1943 Rocket 3.3 16:32:37 21° W 16:34:03 23° W 16:38:22 10° NNW
IRAS Rocket 4.3 16:28:37 10° SSE 16:34:21 89° E 16:40:00 10° NNW
PAYLOAD B 4.4 16:29:10 10° N 16:34:33 53° W 16:40:01 10° SSW
USA 234 3.7 16:29:44 10° SE 16:35:56 44° SSW 16:40:44 17° W
USA 305 3.6 16:37:38 18° SW 16:40:42 49° SSE 16:44:58 10° E
USA 308 3.6 16:38:05 18° SW 16:41:08 46° SSE 16:45:20 10° E
USA 281 3.7 16:36:46 10° SSE 16:43:25 68° ENE 16:49:58 10° NNW
Cosmos 389 Rocket 4.3 16:44:31 15° WNW 16:44:31 15° WNW 16:45:42 10° NW
USA 290 2.3 16:40:25 10° NNW 16:43:44 85° ENE 16:47:05 10° SSE
H-2A R/B 2.6 16:42:39 10° NNE 16:47:05 83° WNW 16:51:41 10° SSW
CZ-2C R/B 3.6 16:42:02 10° NNW 16:47:06 40° W 16:52:28 10° SSW
Meteor 2-10 Rocket 4.0 16:43:44 10° SSW 16:48:58 41° W 16:53:57 10° NNW
SL-16 R/B 3.4 16:46:25 16° W 16:49:08 22° SW 16:53:33 10° S
CZ-4B R/B 4.0 16:47:03 10° SE 16:49:36 23° E 16:52:07 10° NNE
Cosmos 2061 Rocket 4.4 16:43:37 10° SSW 16:49:42 45° W 16:55:47 10° NNW
Feng Yun 1-1 Rocket 4.4 16:44:22 10° NNE 16:49:47 76° ESE 16:55:19 10° SSW
Cosmos 1898 Rocket 3.5 16:47:38 10° SSW 16:53:02 72° WNW 16:58:21 10° NNE
NOSS 3-2 (A) 3.9 16:47:11 10° SW 16:53:45 60° SE 16:59:21 10° NE
Spot 2 4.1 16:50:56 10° N 16:55:15 59° WNW 16:59:26 10° SSW
Landsat 5 3.5 16:51:36 10° S 16:55:24 48° WSW 16:59:13 10° NW
Cosmos 1703 3.7 16:53:56 10° N 16:57:50 68° E 17:01:50 10° SSE
Cosmos 2084 Rocket 4.2 16:56:42 10° WNW 17:01:15 40° SW 17:05:46 10° SSE
COSMO-SKYMED 1 2.6 16:57:11 10° S 17:01:35 65° WSW 17:05:56 10° NNW
SL-08 RB Rocket 4.3 16:59:53 10° NNE 17:04:19 59° ESE 17:08:48 10° S
USA 306 3.2 17:00:53 12° SW 17:04:54 63° SSE 17:09:11 10° ENE
SMAP 4.4 17:01:34 10° NW 17:04:57 20° W 17:08:24 10° SW
Cosmos 2058 Rocket 3.1 17:00:28 10° S 17:05:06 82° W 17:09:37 10° N
Cosmos 1763 Rocket 3.5 17:01:17 10° NW 17:06:22 56° WSW 17:11:28 10° SSE
Meteor 1-21 Rocket 4.3 17:02:11 10° N 17:07:46 87° E 17:13:25 10° SSE
Cosmos 1726 Rocket 3.9 17:04:10 10° SSW 17:08:31 46° W 17:12:48 10° NNW
Cosmos 921 Rocket 4.3 17:06:27 10° N 17:10:47 48° ENE 17:15:06 10° SSE
ISS -3.1 17:08:03 11° W 17:11:12 40° SSW 17:14:30 10° ESE
Meteor 1-4 Rocket 2.6 17:09:26 10° SSW 17:13:05 60° W 17:16:37 10° N
Cosmos 2228 4.1 17:10:21 10° SSW 17:14:00 26° W 17:17:39 10° NW
Lacrosse 4 Rocket 3.5 17:13:25 10° W 17:14:54 11° WNW 17:16:21 10° WNW
Okean-O 3.1 17:14:07 10° NNE 17:18:34 67° ESE 17:23:04 10° S
USA 276 2.2 17:17:17 10° WNW 17:20:30 80° NNE 17:23:45 10° ESE
CZ-4C R/B 3.1 17:12:43 10° NW 17:21:02 87° NE 17:28:05 10° SE
NOSS 3-2 (C) 4.0 17:14:39 10° SW 17:21:12 55° SE 17:26:48 10° ENE
Cosmos 1464 Rocket 4.2 17:17:09 10° S 17:23:28 80° E 17:29:47 10° NNE
